Regional Weather Roundup
Issued by NWS

Home | Current Version | Previous Version | Text Only | Print | Product List | Glossary Off
Versions: 1 2 3 4 5 6 7 8 9 10 11 12 13 14 15 16 17 18 19 20 21 22 23 24 25 26 27

000
ASUS45 KBOU 280507
RWRCO

WEATHER ROUNDUP FOR COLORADO
NATIONAL WEATHER SERVICE DENVER/BOULDER CO
1100 PM MDT WED APR 27 2016

NOTE: "FAIR" INDICATES FEW OR NO CLOUDS BELOW 12000 FEET WITH NO
SIGNIFICANT WEATHER AND/OR OBSTRUCTIONS TO VISIBILITY.

COZ001>005-013-030-031-280600-
...NORTHWEST COLORADO...

CITY           SKY/WX    TMP DP  RH WIND       PRES   REMARKS
CRAIG          CLOUDY    39  33  79 CALM      29.84S
HAYDEN         FAIR      39  30  70 E8        29.84F
MEEKER         FAIR      39  33  79 NE3       29.82F
MOUNT WERNER   NOT AVBL
STEAMBOAT SPGS FAIR      36  31  82 CALM      29.84F
WALDEN         FAIR      30  27  86 N7        29.90S WCI  23
$$

COZ006>008-011-280600-
...WEST CENTRAL VALLEYS...

CITY           SKY/WX    TMP DP  RH WIND       PRES   REMARKS
GRAND JUNCTION MOCLDY    49  37  63 E9        29.75F
MONTROSE       CLOUDY    47  37  68 SE3       29.82F
EAGLE          MOCLDY    39  32  75 E5        29.86S
RIFLE          FAIR      43  34  70 SE7       29.79F
DELTA          NOT AVBL
NUCLA          NOT AVBL
$$

COZ017>023-064>068-280600-
...SOUTHWEST COLORADO...

CITY           SKY/WX    TMP DP  RH WIND       PRES   REMARKS
DURANGO        CLOUDY    45  29  53 E3        29.82S
CORTEZ         CLOUDY    48  32  53 CALM      29.77F
PAGOSA SPRINGS FAIR      42  29  61 NE5       29.87F
TELLURIDE      CLOUDY    37  30  77 E3        29.89F
WOLF CREEK PAS NOT AVBL
$$

COZ009-010-012-014-032>034-037-058>063-280600-
...CENTRAL COLORADO...

CITY           SKY/WX    TMP DP  RH WIND       PRES   REMARKS
ASPEN          MOCLDY    33  29  85 S6        29.84F WCI  28
BUENA VISTA    CLOUDY    42  28  55 E7        29.87F
COPPER MTN     NOT AVBL
BERTHOUD PASS  CLOUDY    18   9  68 CALM      29.95F
COTTONWOOD PAS CLOUDY    36  28  75 E5        29.92F
GUNNISON       FAIR      41  30  65 S5        29.89S
KREMMLING      MOCLDY    36  32  87 CALM      29.88F
LEADVILLE      CLOUDY    28  20  71 NE3       29.90S
MONARCH PASS   CLOUDY    25  23  93 W5        30.07S WCI  19
SALIDA         CLOUDY    45  32  60 SE16G24   29.94S
SUNLIGHT       FAIR      28  27  93 CALM      29.95S
WILKERSON PASS LGT SNOW  28  27  93 S6        29.98F VSB 1   WCI  22
$$

COZ069>075-280600-
...SAN LUIS VALLEY/SANGRE DE CRISTO MOUNTAINS...

CITY           SKY/WX    TMP DP  RH WIND       PRES   REMARKS
ALAMOSA        CLOUDY    44  27  51 SW9       29.86S
LA VETA PASS   CLOUDY    32  28  86 CALM      29.96F
SAGUACHE       CLOUDY    39  32  75 NW9       29.88F
$$

COZ035-036-038>040-280600-
...NORTHERN COLORADO FRONT RANGE...

CITY           SKY/WX    TMP DP  RH WIND       PRES   REMARKS
DENVER INTL AP CLOUDY    39  26  59 E16       29.91R
DMNS CITY PARK   N/A     43  27  54 NE5       29.92R
AURORA         FAIR      38  29  69 E6        29.91S
FRONT RANGE AP NOT AVBL
ERIE MUNI ARPT CLOUDY    42  30  62 E7        29.93R
BOULDER MUN AP CLOUDY    43  30  61 E6        29.92R
CENTENNIAL     CLOUDY    41  27  57 E6        29.91R
BROOMFIELD     NOT AVBL
FORT COLLINS   CLOUDY    39  27  60 E7        29.92R
LONGMONT       CLOUDY    44  31  61 E9        29.94R
$$

COZ041-046-047-076>085-087-088-280600-
...PIKES PEAK/PALMER DIVIDE AND SOUTHERN FOOTHILLS...

CITY           SKY/WX    TMP DP  RH WIND       PRES   REMARKS
COLO. SPRINGS  MOCLDY    43  29  57 E8        29.91R
A. F. ACADEMY  CLOUDY    41  32  70 NW6       29.89S
SCHRIEVER AFB  NOT AVBL
ELLICOTT       NOT AVBL
FALCON         MOCLDY    37  30  76 NE7       29.92S
FORT CARSON    PTCLDY    46  30  53 N2        29.89R
LIMON          CLOUDY    37  27  67 N8        29.90R
MONUMENT HILL  CLOUDY    32  32 100 NE7       29.93S WCI  26
TRINIDAD       FAIR      47  30  51 SW10      29.82R
$$

COZ042>045-048>051-090-091-280600-
...NORTHEAST COLORADO...

CITY           SKY/WX    TMP DP  RH WIND       PRES   REMARKS
GREELEY ARPT   FAIR      36  27  69 NE6       29.92S
AKRON          FAIR      31  25  78 NW13      29.90S WCI  21
BURLINGTON     FAIR      39  30  70 N9        29.89R
WRAY           NOT AVBL
STERLING       MOCLDY    37  30  75 NW3       29.90S
HOLYOKE        NOT AVBL
FORT MORGAN    FAIR      34  26  74 N5        29.91S WCI  29
$$

COZ086-089-092>099-280600-
...SOUTHEAST COLORADO...

CITY           SKY/WX    TMP DP  RH WIND       PRES   REMARKS
PUEBLO         CLOUDY    55  30  38 NE7G21    29.86R
LA JUNTA       CLOUDY    52  28  39 E10       29.85R
LAMAR          FAIR      44  32  62 E7        29.85R
SPRINGFIELD      N/A     48  34  58 E6        29.86R
$$




USA.gov is the U.S. government's official web portal to all federal, state and local government web resources and services.